Weather History for O'Neill, NE

Change the Weather History Date:

Tuesday, September 4, 2012

  Actual Average Record
Temperature  
Mean Temperature 78 °F -  
Max Temperature 99 °F 82 °F 99 °F (2012)
Min Temperature 58 °F 54 °F 38 °F (1988)
Cooling Degree Days 14    
Growing Degree Days 28 (Base 50)    
Moisture  
Dew Point 58 °F    
Average Humidity 62    
Maximum Humidity 99    
Minimum Humidity 14    
Precipitation  
Precipitation 0.00 in - - ()
Sea Level Pressure  
Sea Level Pressure 29.83 in    
Wind  
Wind Speed 5 mph (ESE)    
Max Wind Speed 16 mph    
Max Gust Speed 25 mph    
Visibility 8 miles    
Events Fog    
Averages and records for this station are not official NWS values.
T = Trace of Precipitation, MM = Missing Value Source: NWS Daily Summary

Daily Weather History Graph

Daily Weather History Graph

Search for Another Location

Airport:

Trip Planner

Search our weather history database for the weather conditions in past years. The results will help you decide how hot, cold, wet, or windy it might be!

Date:

Astronomy

Sep. 04, 2012 Rise Set
Actual Time 7:03 AM CDT 8:02 PM CDT
Civil Twilight 6:34 AM CDT 8:31 PM CDT
Nautical Twilight 6:00 AM CDT 9:05 PM CDT
Astronomical Twilight 5:24 AM CDT 9:41 PM CDT
Moon 9:49 PM CDT (9/4) 11:18 AM CDT (9/4)
Length of Visible Light 13h 56m
Length of Day
12h 59m
Waning Gibbous, 83% of the Moon is Illuminated
Sep 4
Waning Gibbous
Sep 8
Last Quarter
Sep 15
New
Sep 22
First Quarter
Sep 29
Full

Hourly Weather History & Observations

Time (CDT) Temp. Heat Index Dew Point Humidity Pressure Visibility Wind Dir Wind Speed Gust Speed Precip Events Conditions
12:15 AM 70.3 °F - 64.8 °F 82% 29.89 in 10.0 mi SSW 4.6 mph - N/A   Clear
12:35 AM 70.3 °F - 65.3 °F 84% 29.88 in 10.0 mi Calm Calm - N/A   Clear
12:55 AM 69.8 °F - 64.8 °F 84% 29.89 in 10.0 mi South 3.5 mph - N/A   Clear
1:15 AM 69.4 °F - 65.3 °F 87% 29.89 in 10.0 mi Calm Calm - N/A   Clear
1:35 AM 67.1 °F - 64.6 °F 92% 29.90 in 10.0 mi Calm Calm - N/A   Clear
1:55 AM 68.0 °F - 64.8 °F 89% 29.92 in 10.0 mi NNE 4.6 mph - N/A   Clear
2:15 AM 67.6 °F - 64.6 °F 90% 29.92 in 10.0 mi ENE 6.9 mph - N/A   Clear
2:35 AM 66.2 °F - 63.7 °F 92% 29.91 in 10.0 mi ENE 4.6 mph - N/A   Clear
2:55 AM 66.6 °F - 63.9 °F 91% 29.91 in 10.0 mi East 6.9 mph - N/A   Clear
3:15 AM 66.2 °F - 63.7 °F 92% 29.91 in 10.0 mi East 5.8 mph - N/A   Clear
3:35 AM 68.0 °F - 65.1 °F 90% 29.90 in 10.0 mi ESE 5.8 mph - N/A   Clear
3:55 AM 67.8 °F - 64.8 °F 90% 29.90 in 10.0 mi SE 5.8 mph - N/A   Clear
4:15 AM 67.1 °F - 64.6 °F 92% 29.91 in 10.0 mi SE 3.5 mph - N/A   Clear
4:35 AM 66.2 °F - 64.4 °F 94% 29.91 in 7.0 mi SE 3.5 mph - N/A   Clear
4:55 AM 65.5 °F - 64.2 °F 96% 29.91 in 7.0 mi SE 4.6 mph - N/A   Clear
5:15 AM 65.7 °F - 64.4 °F 96% 29.90 in 5.0 mi SSE 3.5 mph - N/A   Clear
5:35 AM 64.2 °F - 63.3 °F 97% 29.90 in 3.0 mi South 3.5 mph - N/A   Clear
5:55 AM 61.2 °F - 60.6 °F 98% 29.90 in 0.5 mi Calm Calm - N/A Fog Fog
6:15 AM 59.5 °F - 59.2 °F 99% 29.90 in 0.2 mi South 4.6 mph - N/A Fog Fog
6:35 AM 59.0 °F - 58.5 °F 98% 29.91 in 0.2 mi South 3.5 mph - N/A Fog Fog
6:55 AM 59.0 °F - 58.6 °F 99% 29.91 in 0.2 mi Calm Calm - N/A Fog Fog
7:15 AM 59.4 °F - 59.0 °F 99% 29.91 in 0.2 mi Calm Calm - N/A Fog Fog
7:35 AM 58.6 °F - 58.3 °F 99% 29.92 in 0.2 mi Calm Calm - N/A Fog Fog
7:55 AM 60.3 °F - 59.9 °F 99% 29.92 in 0.2 mi Calm Calm - N/A Fog Fog
8:15 AM 62.2 °F - 61.9 °F 99% 29.91 in 0.2 mi Calm Calm - N/A Fog Fog
8:35 AM 63.7 °F - 63.5 °F 99% 29.91 in 0.2 mi SW 3.5 mph - N/A Fog Fog
8:55 AM 64.4 °F - 64.0 °F 99% 29.91 in 0.2 mi Calm Calm - N/A Fog Fog
9:55 AM 68.9 °F - 66.9 °F 93% 29.91 in 5.0 mi SSE 3.5 mph - N/A   Mostly Cloudy
10:15 AM 72.7 °F - 67.6 °F 84% 29.91 in 10.0 mi South 4.6 mph - N/A   Clear
10:35 AM 75.9 °F - 67.5 °F 75% 29.91 in 7.0 mi SSE 3.5 mph - N/A   Clear
10:55 AM 79.2 °F - 67.1 °F 66% 29.90 in 10.0 mi ESE 5.8 mph - N/A   Clear
11:15 AM 81.0 °F 83.4 °F 67.1 °F 63% 29.90 in 10.0 mi East 5.8 mph - N/A   Clear
11:35 AM 83.3 °F 85.3 °F 65.5 °F 55% 29.90 in 10.0 mi East 5.8 mph - N/A   Clear
11:55 AM 85.3 °F 86.8 °F 64.8 °F 50% 29.89 in 10.0 mi East 8.1 mph - N/A   Clear
12:15 PM 86.7 °F 88.4 °F 64.6 °F 48% 29.88 in 10.0 mi NE 8.1 mph - N/A   Clear
12:35 PM 87.4 °F 88.5 °F 63.5 °F 45% 29.88 in 10.0 mi East 9.2 mph - N/A   Clear
12:55 PM 89.4 °F 89.8 °F 62.4 °F 40% 29.87 in 10.0 mi East 8.1 mph - N/A   Clear
1:15 PM 91.2 °F 91.1 °F 60.6 °F 36% 29.85 in 10.0 mi East 9.2 mph - N/A   Clear
1:35 PM 93.2 °F 91.0 °F 55.0 °F 27% 29.84 in 10.0 mi ESE 9.2 mph 17.3 mph N/A   Clear
1:55 PM 94.5 °F 92.1 °F 53.4 °F 25% 29.83 in 10.0 mi ESE 11.5 mph 17.3 mph N/A   Clear
2:15 PM 94.5 °F 92.3 °F 54.9 °F 26% 29.82 in 10.0 mi ESE 10.4 mph 17.3 mph N/A   Clear
2:35 PM 95.2 °F 93.0 °F 53.6 °F 25% 29.81 in 10.0 mi ESE 10.4 mph 17.3 mph N/A   Clear
2:55 PM 96.3 °F - 50.0 °F 21% 29.81 in 10.0 mi SE 9.2 mph 18.4 mph N/A   Clear
3:15 PM 97.2 °F - 46.6 °F 18% 29.80 in 10.0 mi SSE 16.1 mph 19.6 mph N/A   Clear
3:35 PM 97.3 °F - 45.3 °F 17% 29.78 in 10.0 mi SE 16.1 mph 21.9 mph N/A   Clear
3:55 PM 97.5 °F - 45.1 °F 17% 29.78 in 10.0 mi SE 13.8 mph 25.3 mph N/A   Clear
4:15 PM 97.7 °F - 45.9 °F 17% 29.76 in 10.0 mi SE 15.0 mph 20.7 mph N/A   Clear
4:35 PM 98.8 °F - 44.4 °F 16% 29.75 in 10.0 mi SE 13.8 mph - N/A   Clear
4:55 PM 98.6 °F - 42.8 °F 15% 29.74 in 10.0 mi SE 15.0 mph 20.7 mph N/A   Clear
5:15 PM 99.7 °F - 43.0 °F 14% 29.73 in 10.0 mi SE 16.1 mph 21.9 mph N/A   Clear
5:35 PM 96.4 °F - 43.3 °F 16% 29.71 in 10.0 mi SE 12.7 mph 18.4 mph N/A   Clear
5:55 PM 95.9 °F - 45.5 °F 18% 29.73 in 10.0 mi SSE 13.8 mph 18.4 mph N/A   Clear
6:15 PM 89.1 °F - 47.5 °F 24% 29.73 in 10.0 mi North 10.4 mph 17.3 mph N/A   Clear
6:35 PM 91.4 °F - 48.2 °F 23% 29.73 in 10.0 mi North 3.5 mph - N/A   Clear
6:55 PM 85.5 °F - 52.9 °F 33% 29.73 in 10.0 mi NNW 10.4 mph - N/A   Clear
7:15 PM 85.5 °F - 51.3 °F 31% 29.72 in 10.0 mi North 4.6 mph - N/A   Clear
7:35 PM 82.6 °F 81.5 °F 53.4 °F 36% 29.71 in 10.0 mi NNE 3.5 mph - N/A   Clear
7:55 PM 81.3 °F - 52.2 °F 36% 29.71 in 10.0 mi Calm Calm - N/A   Clear
8:15 PM 78.3 °F - 52.7 °F 41% 29.72 in 10.0 mi NE 5.8 mph - N/A   Clear
8:35 PM 73.6 °F - 55.6 °F 53% 29.73 in 10.0 mi NW 3.5 mph - N/A   Clear
8:55 PM 70.9 °F - 56.1 °F 59% 29.73 in 10.0 mi Calm Calm - N/A   Clear
9:15 PM 74.8 °F - 53.6 °F 47% 29.74 in 10.0 mi South 3.5 mph - N/A   Clear
9:35 PM 69.1 °F - 57.0 °F 65% 29.73 in 10.0 mi SSW 4.6 mph - N/A   Clear
9:55 PM 68.0 °F - 57.2 °F 68% 29.73 in 10.0 mi Calm Calm - N/A   Clear
10:15 PM 68.2 °F - 55.8 °F 64% 29.74 in 10.0 mi SSW 3.5 mph - N/A   Clear
10:35 PM 66.6 °F - 56.8 °F 71% 29.74 in 10.0 mi SW 4.6 mph - N/A   Clear
10:55 PM 66.4 °F - 53.8 °F 64% 29.74 in 10.0 mi SW 4.6 mph - N/A   Clear
11:15 PM 70.0 °F - 54.9 °F 59% 29.77 in 10.0 mi NNW 9.2 mph 20.7 mph N/A   Clear
11:35 PM 69.6 °F - 54.9 °F 59% 29.78 in 10.0 mi North 10.4 mph - N/A   Clear
11:55 PM 66.6 °F - 55.2 °F 67% 29.78 in 10.0 mi NNE 6.9 mph - N/A   Clear